Location: *
(51.5000°N, 0.1100°W)
Time: 21:13:36
(UTC+00:00)

Helios 1A Rocket - Pass Details

Date: 25 May 2024
Orbit: 520 x 543 km, 98.3° (Epoch: 24 June)

Event Time Altitude Azimuth Distance (km) Brightness Sun altitude
Exits shadow 01:25:52 28° 206° (SSW) 1,025 3.6 -14.9°
Maximum altitude 01:27:27 44° 260° (W) 749 3.2 -14.8°
Drops below altitude 10° 01:31:10 10° 334° (NNW) 1,790 6.0 -14.6°
Sets 01:33:21 0° 341° (NNW) 2,681 7.1 -14.5°
